Lid_Strength_Index
2 1 1 1 2 3 3 2 2 3 3 3 2 2 1 2 3 1 1 1 2 1 1 2 2 2 2 2 2 3 3 3 4 4 2 2 2 2 2 2 -0 0 0
1 1 1 1 2 3 4 3 3 4 4 3 1 1 2 2 4 2 1 1 1 2 2 2 2 1 2 2 3 3 3 3 4 5 4 3 3 3 3 3 2 1 1
2 2 2 1 2 3 4 3 3 3 3 2 1 2 3 3 4 2 2 2 2 2 1 2 2 2 3 3 3 3 3 2 3 4 4 3 3 2 3 3 2 2 1
2 2 2 2 2 3 3 3 3 3 3 2 2 3 3 4 3 2 1 2 2 1 1 2 2 2 3 3 2 3 3 3 3 3 4 4 3 3 3 3 3 3 2
2 2 2 1 1 2 3 3 3 3 3 3 3 3 4 3 2 1 2 2 2 2 2 2 2 1 1 2 3 3 3 4 4 3 4 4 4 4 4 3 4 3 3
2 2 2 2 2 2 2 3 3 3 3 3 3 3 2 1 2 3 2 2 2 3 3 2 3 3 3 3 2 2 3 4 4 5 4 4 4 4 3 4 4 4 4
2 2 2 2 2 2 2 2 3 3 3 3 2 2 1 1 4 4 2 2 3 3 2 3 3 2 3 4 2 2 2 2 2 4 5 4 4 4 3 3 3 4 4
2 2 2 2 2 2 2 2 2 1 2 2 1 1 1 2 5 5 3 2 3 2 2 2 3 5 4 4 3 2 3 4 4 3 4 3 3 2 2 2 3 3 3
3 2 2 2 2 2 2 2 2 2 1 2 1 1 2 3 6 5 3 3 3 2 2 3 5 6 4 3 2 3 4 5 4 3 3 3 2 2 2 3 4 4 4
3 2 2 2 2 2 2 2 1 1 2 1 1 1 3 3 7 7 4 3 4 4 5 6 5 6 6 3 3 4 4 4 5 2 3 3 4 2 2 3 3 4 3
2 2 2 2 2 2 2 2 2 2 2 2 2 2 3 4 6 8 6 3 3 5 7 7 6 6 5 3 3 4 3 4 3 4 5 5 4 4 4 4 3 1 3
2 2 2 2 1 1 2 2 2 2 2 2 3 4 5 5 7 9 7 5 4 5 7 8 7 6 4 3 3 2 2 3 5 6 6 6 6 6 6 5 4 3 2
2 2 2 2 2 1 2 2 2 2 2 3 3 4 6 7 8 9 8 5 4 4 6 7 6 7 4 4 3 3 3 5 6 6 7 6 6 5 5 5 5 4 5
3 2 2 2 2 2 2 2 2 2 3 3 3 4 5 9 9 9 7 5 5 5 5 7 7 5 3 3 4 5 5 6 6 7 7 7 6 6 6 6 7 7 7
3 2 2 2 2 2 2 4 2 1 2 2 2 3 6 8 8 10 9 5 5 6 7 7 8 7 6 5 6 7 7 7 7 7 7 7 7 7 7 7 8 9 10
3 3 3 2 2 2 6 7 15 14 14 11 9 5 4 9 13 13 14 12 10 9 7 8 8 8 8 7 6 7 7 6 7 7 8 8 8 8 8 8 8 10 11
3 3 3 3 3 4 4 3 4 11 15 15 14 12 11 11 14 15 15 14 11 9 7 7 7 8 7 8 8 7 7 7 7 8 8 8 8 9 10 10 10 11 11
2 7 2 2 2 3 3 3 3 6 5 6 12 11 12 13 14 14 15 13 9 8 7 6 7 8 8 8 8 9 8 7 8 8 8 9 10 11 11 11 11 12 12
3 3 2 2 3 4 4 3 4 5 4 3 6 13 13 15 15 15 14 6 7 6 7 7 7 8 8 8 9 9 9 8 8 9 10 11 11 11 12 12 12 10 11
3 5 4 3 4 4 4 4 5 4 4 3 4 5 11 12 11 10 9 6 6 6 7 6 8 8 8 8 9 10 9 10 10 11 11 12 12 12 12 12 12 12 12
4 4 5 4 5 5 5 5 5 5 5 6 6 8 12 8 6 7 6 7 7 6 7 7 8 8 8 9 9 10 9 10 10 12 12 13 13 13 13 13 12 12 12
5 5 5 4 5 5 5 5 5 5 6 7 7 7 13 9 6 6 6 5 7 6 6 7 7 8 8 8 8 9 10 10 11 12 12 13 13 13 14 14 13 12 13
5 5 5 6 4 5 4 4 5 5 6 5 5 5 8 7 5 5 6 5 6 6 7 7 7 8 8 8 8 7 8 10 11 11 13 13 13 14 15 14 13 13 13
5 5 5 5 5 4 3 3 3 8 5 5 5 5 7 7 7 6 7 6 6 6 7 7 7 8 9 8 7 8 9 11 11 12 12 13 14 14 14 14 13 14 14
4 5 5 6 5 4 3 3 4 4 5 5 5 6 6 6 7 6 6 6 6 7 7 7 8 8 8 8 8 10 13 15 13 14 14 13 14 14 14 13 14 14 14
5 5 5 6 6 5 4 3 3 3 3 3 4 4 5 6 6 5 5 6 7 7 8 8 9 8 9 8 9 13 17 16 14 15 14 15 15 14 13 13 14 15 14